Theta_e
305 305 305 305 305 306 306 305 306 306 306 308 309 309 308 308 309 308 307 307 308 307 306 306 306 305 305 305 303 301 299 297 296 295 294 293 292 292 291 291 291 291 291 291 291 290 290 290 290 290 289 289 289 288 288 287 287 286 286 285 285 285 285 285 286 285 285 286 286 285 284 283 283 283 282 282 283 284 283 283 283 283 283 284 284 284 285
306 305 305 304 305 305 305 305 305 305 305 306 306 306 306 306 307 306 306 306 306 305 305 304 304 304 303 302 301 300 298 297 296 295 294 293 292 291 291 291 291 291 290 291 291 291 290 290 290 290 290 289 289 288 288 287 287 286 285 285 285 285 285 285 285 285 285 285 285 284 283 283 282 282 282 282 283 284 284 284 283 283 283 284 284 284 284
305 304 304 304 305 305 305 305 305 305 305 305 305 305 305 305 306 305 304 305 305 304 304 303 301 301 300 299 299 298 297 296 296 295 294 293 292 291 291 291 291 290 290 291 291 290 290 290 290 290 290 289 289 288 288 287 287 286 285 285 284 284 284 284 284 284 284 284 284 283 283 282 282 282 281 282 283 284 284 284 284 283 283 283 283 284 284
304 304 304 304 303 303 303 304 304 305 305 304 304 304 304 304 304 303 304 304 304 303 301 300 299 298 298 297 297 296 295 295 294 294 294 294 293 292 291 291 290 290 290 290 290 290 290 290 290 290 289 289 289 288 288 287 287 286 285 284 284 284 284 283 283 283 283 283 283 283 283 282 282 281 281 281 282 283 284 284 283 283 283 283 283 283 284
304 304 303 302 301 301 302 302 303 303 303 303 303 303 303 302 302 302 303 302 301 300 299 298 298 297 296 295 295 294 294 293 293 292 292 293 293 293 292 291 290 290 290 290 290 290 290 290 290 290 289 289 288 288 288 287 286 285 285 284 284 284 283 283 283 282 282 283 283 282 282 282 282 281 281 281 281 282 282 282 282 282 283 283 283 283 284
302 302 302 301 301 302 302 301 300 301 301 301 301 300 300 300 300 301 301 299 297 297 296 296 296 295 294 293 293 293 292 292 291 291 291 292 292 292 292 292 291 290 291 291 290 290 290 290 290 290 289 289 288 288 287 286 286 285 284 284 284 283 283 283 282 282 282 282 282 282 282 281 281 280 280 280 280 280 281 281 281 281 282 282 282 283 284
300 300 300 300 300 300 300 299 299 299 299 299 299 299 298 298 299 300 299 298 298 296 294 293 293 292 291 291 291 291 292 292 291 291 291 291 291 292 292 292 291 291 291 290 290 290 290 289 289 289 289 288 288 287 286 286 285 284 284 284 283 283 283 282 282 282 282 282 282 282 281 280 280 279 279 279 279 279 279 280 280 280 280 280 281 282 282
298 298 298 299 299 298 298 298 298 298 298 298 298 298 298 298 298 299 299 298 296 293 291 290 290 290 290 291 291 291 292 292 292 292 291 291 291 291 292 292 292 291 290 290 290 290 289 289 288 288 288 287 286 286 285 284 284 283 283 283 283 282 282 282 282 281 281 281 281 281 281 280 279 279 278 278 277 277 278 279 280 279 279 279 279 280 280
297 297 298 298 299 298 298 297 297 297 297 297 297 297 298 298 297 297 297 296 293 291 290 290 290 291 292 291 290 291 292 293 293 293 292 291 291 291 292 292 292 291 290 290 290 289 289 288 287 287 286 285 285 284 283 283 282 282 282 282 282 282 281 281 281 281 281 280 280 280 280 279 278 278 277 276 276 276 276 278 278 278 278 278 278 278 279
297 297 298 298 298 298 298 297 296 295 295 295 296 296 297 297 296 296 296 293 290 290 290 289 290 292 291 290 290 291 292 292 292 292 291 291 291 291 291 292 292 291 290 290 289 288 287 287 286 286 285 284 283 283 282 282 281 281 281 281 281 281 280 280 280 280 280 279 279 279 279 278 277 276 276 275 275 275 275 276 277 277 276 276 276 276 277
298 297 297 297 297 297 296 296 295 294 295 295 295 295 295 295 294 294 293 291 289 290 289 289 290 291 290 289 290 291 291 291 291 290 290 290 290 290 290 291 291 290 289 288 287 286 286 286 285 284 283 283 282 281 281 280 280 280 280 280 279 279 279 279 278 278 278 278 278 278 277 277 276 275 275 274 274 274 274 275 276 275 275 275 275 275 275
297 297 297 296 296 295 295 294 294 294 295 294 294 293 293 293 292 291 290 289 289 289 289 289 289 290 290 290 290 291 291 290 290 290 290 290 290 290 290 290 288 288 287 286 286 285 285 284 283 282 281 281 280 279 279 278 278 278 278 278 278 277 277 277 277 276 276 276 275 276 276 275 274 274 274 273 273 273 274 274 274 274 273 273 273 273 274
296 296 296 295 294 295 295 295 294 294 294 294 294 293 292 291 291 290 289 290 290 289 289 289 289 290 290 290 290 290 290 290 290 290 290 290 290 290 289 288 286 286 286 285 284 284 283 282 281 280 279 279 278 277 277 277 277 276 276 276 275 275 275 275 274 274 274 273 273 273 273 273 273 273 273 272 272 272 272 272 272 272 272 272 272 272 272
294 294 295 294 293 294 295 294 293 294 293 293 293 292 290 290 291 290 290 290 290 289 289 289 289 289 290 290 290 290 290 290 289 290 290 290 290 289 288 286 285 285 284 283 282 282 281 280 279 278 277 276 276 275 275 275 275 274 274 273 273 273 272 272 272 271 270 270 270 270 270 271 271 271 271 271 271 271 271 271 271 271 271 271 271 271 271
293 293 294 293 293 293 294 293 292 293 293 293 292 291 290 291 291 291 291 290 290 289 289 289 289 289 289 289 289 289 289 289 289 289 289 289 288 287 286 285 284 282 281 281 280 279 279 277 277 276 275 274 274 274 273 273 272 271 271 270 270 269 269 269 268 267 267 267 267 268 268 268 269 269 269 269 269 269 269 270 270 270 270 270 270 270 271
292 291 293 293 293 292 293 292 292 292 293 293 292 292 291 291 291 290 290 290 290 289 289 289 289 289 289 289 289 289 289 289 289 289 288 287 286 285 284 283 281 280 279 278 277 277 276 275 274 274 273 272 272 272 271 270 269 269 268 267 267 266 266 266 265 265 265 265 265 265 265 266 266 266 267 267 267 268 268 268 269 269 269 269 269 270 270
291 291 291 292 292 292 292 293 292 292 292 293 292 292 291 291 291 290 290 290 289 289 289 289 289 288 289 289 289 288 288 288 288 287 286 285 284 283 282 281 279 277 276 276 275 274 274 273 273 272 271 270 270 269 268 268 267 266 265 265 264 264 264 264 264 264 264 263 263 264 264 264 265 265 265 266 266 266 267 267 268 268 268 269 269 270 270
291 291 291 291 291 291 291 292 292 292 292 292 292 291 291 291 291 290 290 289 289 289 289 288 288 288 288 288 288 288 288 287 287 286 285 284 282 281 280 278 277 275 274 273 273 272 272 271 271 270 269 268 267 267 266 266 265 264 264 264 263 263 263 263 263 263 263 263 263 263 263 263 264 264 264 265 265 265 266 266 267 267 268 268 269 269 270
290 290 290 290 291 291 291 291 291 292 292 291 291 291 291 290 290 290 290 289 289 288 288 288 288 288 288 287 287 287 286 285 284 284 282 281 280 278 277 276 274 273 272 272 271 271 270 269 268 268 267 266 266 265 265 264 264 263 263 263 263 263 263 263 262 262 262 262 263 263 263 263 263 263 263 264 264 264 265 265 266 266 267 268 268 269 270
290 290 290 290 290 291 291 291 291 291 291 291 291 291 290 290 290 289 289 288 287 287 287 287 287 286 286 286 286 285 284 283 282 281 280 279 277 276 275 274 272 271 271 270 269 269 268 267 266 266 265 265 264 264 264 263 263 263 263 262 262 262 262 262 262 262 262 262 263 263 263 263 263 263 263 263 263 264 264 264 265 265 266 266 267 267 268
290 290 290 290 290 290 291 291 291 291 291 290 290 290 290 290 290 289 287 286 286 286 286 285 285 285 285 284 283 282 281 280 280 279 278 276 275 274 273 272 271 270 269 268 267 267 266 265 265 264 264 264 263 263 263 263 263 262 262 262 262 262 262 262 262 262 262 262 262 262 263 263 263 263 263 263 263 263 263 264 264 264 265 265 266 266 267
290 290 290 290 290 290 290 290 291 291 290 290 290 290 290 289 289 288 287 285 283 283 283 283 282 282 282 281 280 279 278 278 277 276 275 274 273 272 271 270 269 268 267 266 265 265 264 264 264 264 263 263 263 263 263 262 262 262 262 262 262 262 262 262 262 262 262 262 262 262 262 262 262 263 263 263 264 264 264 264 265 265 266 266 267 267 267
290 290 290 291 290 290 290 290 291 291 290 290 289 289 289 289 288 287 286 284 283 282 281 280 279 279 279 278 277 276 276 275 275 273 272 272 271 270 269 268 268 267 266 265 264 264 264 263 263 263 263 263 263 262 262 262 262 262 262 261 261 261 261 261 261 261 261 261 262 262 262 262 262 262 263 263 263 264 264 265 265 266 266 267 267 268 268
290 290 291 291 290 290 290 290 290 290 289 289 289 288 288 287 285 283 283 283 282 281 279 277 276 276 275 275 274 273 273 273 272 271 270 269 269 268 268 267 266 265 264 263 263 263 263 263 263 262 262 262 262 262 262 262 262 261 261 261 261 261 261 261 261 261 261 261 261 262 262 262 262 262 263 263 263 263 264 264 265 265 266 266 267 268 268
291 291 291 291 290 290 290 290 289 288 286 286 286 286 285 283 281 280 280 279 278 277 277 276 275 273 273 272 272 271 271 270 270 269 268 267 267 267 266 265 264 264 263 263 263 262 262 262 262 262 262 262 262 262 262 262 261 261 261 261 261 261 260 260 260 260 261 261 261 262 262 262 262 262 263 263 263 263 263 264 264 264 265 266 266 267 267
291 291 291 291 291 290 290 290 289 287 285 284 283 282 280 279 277 277 276 275 275 274 274 274 273 271 270 269 269 269 268 268 267 267 266 266 266 265 265 264 263 263 262 262 262 262 262 262 262 262 262 262 262 262 262 262 261 261 261 260 260 260 260 260 260 260 261 261 261 262 262 262 262 262 262 263 263 263 263 263 263 264 264 264 265 265 266
291 291 291 291 291 290 290 289 288 284 281 280 279 278 275 274 274 273 273 272 272 271 271 270 270 268 267 267 267 266 266 266 265 265 265 265 265 264 264 263 262 262 262 261 261 261 262 262 262 262 262 262 262 262 262 261 261 261 261 260 260 260 260 260 260 261 261 261 261 262 262 262 262 262 262 262 263 263 263 263 263 263 263 264 264 265 266
290 290 290 291 290 289 287 284 281 279 277 276 276 274 272 272 271 271 271 271 270 269 269 268 267 266 266 266 265 265 265 264 264 264 264 264 263 263 262 262 261 261 261 261 261 261 262 262 262 262 262 262 262 262 261 261 261 261 260 260 260 260 260 260 261 261 261 261 262 262 262 262 262 262 262 262 263 263 263 263 263 264 264 264 264 265 266
291 290 289 288 285 283 281 279 278 277 275 274 273 271 271 271 271 271 271 271 270 269 268 268 266 265 265 264 264 263 263 263 263 263 263 262 262 262 261 261 261 260 260 261 261 262 262 262 262 262 262 262 262 261 261 261 261 260 260 260 260 260 260 261 261 261 261 262 262 262 262 263 263 263 263 263 263 263 263 263 264 264 264 264 265 265 266
288 285 284 282 280 278 279 280 279 278 275 272 271 270 270 271 272 271 271 270 268 267 267 267 265 264 263 263 262 262 262 262 261 261 261 261 261 260 260 260 260 260 261 262 262 262 262 262 261 261 261 262 262 261 261 261 260 260 260 260 260 260 261 261 261 262 262 262 262 263 263 263 263 263 263 263 263 264 264 264 264 264 265 265 265 266 266
284 280 279 278 277 277 279 279 278 276 274 272 271 270 269 269 271 271 270 268 267 266 266 264 263 263 262 262 261 261 260 260 260 260 260 260 259 260 260 260 260 261 262 262 262 262 261 261 261 261 261 262 261 261 260 260 260 260 260 260 260 260 261 261 261 262 262 263 263 263 263 263 263 264 264 264 264 264 264 264 264 265 265 265 266 266 266
283 279 277 275 274 274 276 276 276 275 273 271 271 270 269 269 269 268 268 267 265 264 264 263 262 262 262 261 260 260 259 259 259 259 259 259 259 260 260 260 260 261 261 261 261 261 261 261 261 261 261 261 261 260 260 260 260 260 260 260 260 260 260 261 261 262 262 263 263 263 263 264 264 264 264 264 264 264 264 265 265 265 265 265 266 266 266
286 285 283 280 277 277 276 275 274 274 272 270 270 269 267 266 266 265 265 264 263 263 262 262 262 261 260 260 259 259 259 259 258 258 259 259 260 260 260 260 261 261 261 261 261 261 261 261 261 261 261 261 260 260 260 260 260 259 259 259 260 260 260 261 261 262 263 263 263 264 264 264 264 264 264 264 264 265 265 265 265 265 265 266 266 266 267
282 282 280 278 277 277 277 276 274 273 271 269 267 266 265 264 263 263 262 262 262 261 261 261 261 260 260 259 259 258 258 258 258 259 260 259 259 259 260 260 261 261 261 261 261 261 261 261 261 261 261 260 260 260 260 259 259 259 259 259 260 260 261 261 262 262 263 263 263 264 264 264 265 265 265 265 265 265 265 265 265 266 266 266 267 267 268
272 272 270 268 268 268 271 272 271 270 269 267 265 264 263 262 262 261 261 261 260 260 261 260 260 259 259 258 258 258 258 258 258 259 259 259 259 259 260 260 260 260 260 261 261 261 261 261 261 261 260 260 259 259 260 259 259 259 259 259 260 260 261 262 262 262 263 263 264 264 265 265 265 266 266 266 266 266 266 266 266 266 267 267 267 268 269
268 268 266 264 263 262 263 265 264 264 264 264 263 262 261 260 260 260 260 260 260 260 260 259 259 258 258 258 258 258 258 258 258 258 258 258 259 259 260 260 260 259 260 261 262 262 261 261 261 261 260 259 259 259 259 259 259 259 259 259 260 260 261 261 262 262 263 263 264 264 265 265 265 266 267 267 267 267 267 267 267 268 268 268 269 269 270
264 265 264 262 261 260 260 260 260 260 260 260 260 259 259 259 259 259 258 258 258 258 258 258 258 257 257 257 257 257 257 257 257 258 258 258 259 259 259 259 259 260 261 262 262 261 261 261 261 261 260 259 259 259 259 259 259 259 259 259 260 260 261 261 261 262 262 263 263 264 264 265 265 266 266 267 267 267 268 268 268 268 268 269 269 269 270
261 261 261 260 259 259 259 259 258 258 258 258 258 258 258 258 258 257 257 257 257 257 257 257 257 257 257 257 257 257 257 257 257 257 258 258 258 259 259 259 260 261 262 261 261 260 260 260 261 260 259 258 259 259 259 260 259 259 259 259 259 260 260 261 261 262 262 262 263 263 263 264 264 265 265 266 266 266 266 267 267 267 267 267 267 267 267
261 260 259 259 258 258 258 258 257 257 257 257 257 257 257 257 257 256 256 256 256 256 256 256 256 256 256 256 256 256 257 257 257 257 258 258 258 259 259 260 261 261 261 261 260 260 260 260 260 260 259 258 258 259 259 260 260 259 258 259 259 259 260 260 260 261 261 261 262 262 263 263 263 264 264 265 265 265 265 265 265 265 265 265 265 265 265
260 259 259 258 258 258 258 257 257 257 257 257 256 256 256 256 256 256 256 256 256 256 256 256 256 256 256 256 256 256 257 257 257 258 258 258 259 259 259 261 262 262 261 260 260 260 260 260 260 259 258 258 258 258 259 260 260 259 258 259 259 259 259 260 260 260 261 261 261 261 262 262 262 263 263 263 264 264 264 264 264 264 264 264 264 263 263
260 259 259 258 258 258 258 257 257 257 257 256 256 256 256 256 256 256 256 256 256 256 256 255 255 255 255 255 255 256 256 257 257 258 258 258 259 260 260 261 262 262 261 260 260 260 260 261 260 258 258 258 258 258 259 260 259 258 258 258 259 259 259 259 260 260 260 260 260 260 260 261 261 261 262 262 262 263 263 263 263 263 263 263 263 262 262
260 259 259 258 258 258 257 256 256 256 256 256 256 256 256 256 256 255 255 255 255 255 255 255 255 255 255 255 255 256 256 257 257 258 259 259 259 260 260 261 262 261 260 260 260 260 261 260 259 258 257 258 258 259 259 260 259 259 258 258 258 258 259 259 259 259 259 259 260 260 260 260 260 260 261 261 261 262 262 262 262 262 262 262 262 262 262
258 257 257 257 257 256 256 255 255 256 256 256 256 256 256 255 255 255 255 255 255 255 255 255 255 255 255 255 255 255 256 257 258 259 260 260 260 260 260 261 261 260 260 259 259 260 260 260 259 258 258 258 259 259 260 260 259 259 258 258 258 258 258 258 258 258 259 259 259 259 259 259 259 260 260 260 260 261 261 261 261 261 261 261 261 261 261
256 256 256 256 256 255 256 256 256 256 256 256 256 256 256 256 256 256 255 254 255 255 255 255 255 255 255 255 255 256 258 259 260 260 260 260 261 261 261 261 260 260 259 259 259 260 260 259 258 258 259 259 260 260 260 260 259 259 258 258 258 258 258 258 258 258 258 258 258 259 259 259 259 259 259 259 260 260 260 261 261 261 261 261 261 261 261
255 255 255 255 255 255 255 255 255 255 255 255 255 256 257 257 257 257 256 255 255 255 255 255 255 256 256 257 257 258 259 260 260 260 260 260 261 261 261 260 260 259 259 259 259 260 260 259 258 259 259 260 261 261 261 260 259 259 258 258 258 258 258 258 258 258 258 258 258 258 258 258 258 259 259 259 259 259 260 260 261 261 261 261 261 260 260
255 255 254 254 254 254 254 254 254 254 253 253 253 256 257 257 257 257 257 256 256 256 256 257 257 257 257 258 258 259 259 260 260 260 260 260 260 261 261 260 260 259 259 259 260 260 260 259 259 259 260 261 261 261 261 261 260 259 259 258 258 258 258 258 257 257 257 258 258 258 258 258 258 258 258 258 259 259 259 260 260 261 260 260 260 260 260
254 254 254 254 254 254 254 254 254 252 252 252 254 256 257 258 257 257 257 257 257 257 258 258 258 258 259 258 258 259 260 260 260 260 260 260 260 260 260 259 259 259 259 260 260 260 259 259 259 260 260 261 261 261 261 261 260 260 259 259 258 258 258 258 257 257 257 258 258 258 258 258 258 258 258 259 259 259 259 259 260 260 260 260 260 260 261
254 254 254 254 254 254 254 254 252 251 252 254 255 256 257 257 257 258 258 258 258 259 259 259 259 259 259 259 259 259 259 259 260 260 260 260 260 260 259 259 259 259 260 260 260 260 259 259 259 260 260 261 261 261 261 260 260 260 259 259 258 258 258 258 258 258 258 258 258 258 258 258 258 258 258 259 259 259 259 259 259 260 260 260 260 260 261
254 254 254 254 255 254 254 254 254 254 255 256 257 256 257 258 258 258 259 259 259 259 259 259 259 259 259 259 259 259 259 259 259 259 260 260 260 259 259 259 259 260 260 260 260 260 260 260 260 260 260 260 260 260 260 260 260 260 259 259 259 259 259 259 259 259 258 258 258 258 258 258 258 258 259 259 259 260 260 260 260 260 261 261 261 261 261
254 254 255 255 256 255 255 255 256 257 257 257 257 257 257 258 259 259 260 260 260 260 260 260 260 260 260 259 259 259 259 258 258 259 259 259 259 259 259 259 260 260 260 259 260 260 260 260 260 260 260 260 260 260 260 260 260 260 259 259 259 259 259 259 260 259 259 259 259 259 259 259 259 259 259 260 260 260 261 261 261 261 261 261 261 261 261
254 255 256 256 256 256 256 256 256 256 257 257 257 257 258 259 259 260 260 259 259 260 260 260 260 260 260 259 259 258 258 258 258 259 259 259 259 259 259 259 260 260 260 260 260 260 260 260 260 260 260 260 260 260 260 260 260 260 259 259 259 259 259 259 260 260 260 260 259 259 259 259 259 259 260 260 260 260 261 261 261 261 261 261 261 261 261
255 256 256 256 256 256 256 256 256 257 257 257 257 258 258 259 259 259 259 259 259 259 259 259 260 260 259 259 259 258 258 258 259 259 259 258 258 259 259 260 260 260 260 260 260 260 260 260 260 260 260 260 260 260 260 260 260 260 260 260 260 259 259 259 259 259 259 259 260 260 259 260 260 260 260 260 260 260 260 260 260 260 261 261 261 261 261
Wind_Speed
17 18 19 18 17 16 16 17 19 19 18 18 17 17 19 16 13 12 12 17 20 17 15 18 18 13 8 6 5 6 7 7 8 7 7 8 7 7 7 6 6 6 6 5 6 7 7 7 8 8 8 9 9 11 13 15 16 18 20 21 19 16 15 14 13 14 16 16 15 19 26 29 30 31 32 33 32 29 30 30 28 29 28 26 25 24 22
15 17 18 18 18 18 18 20 22 22 22 24 23 21 22 21 18 18 20 24 24 19 19 21 16 6 1 1 3 5 6 6 7 7 7 8 7 7 7 6 6 6 6 6 7 8 8 8 8 8 8 8 8 9 11 12 13 15 19 22 21 19 18 17 17 17 19 18 17 21 26 28 30 32 33 33 30 28 31 33 30 29 27 27 27 26 25
11 14 17 18 15 15 15 15 18 22 24 25 23 21 21 20 20 21 23 23 20 16 12 8 4 3 2 2 3 4 5 6 6 7 7 7 7 6 6 6 5 5 5 6 7 8 8 9 9 8 9 9 9 10 10 11 10 11 15 19 20 20 22 23 23 25 25 23 23 28 31 30 30 32 33 32 29 28 30 31 31 29 28 28 28 26 25
9 11 13 12 8 8 11 12 15 20 21 20 19 17 17 19 20 22 23 18 12 6 2 4 3 1 0 2 3 3 3 4 5 6 6 7 7 8 7 6 5 5 5 6 6 7 8 8 9 9 9 9 10 11 11 11 11 11 13 15 17 19 22 25 28 30 30 27 27 31 34 34 33 34 34 31 29 29 29 30 31 31 30 29 28 28 27
6 7 7 5 5 7 11 11 12 16 16 16 17 16 17 20 19 17 15 10 4 1 2 2 2 2 1 2 2 2 2 3 4 5 7 7 8 8 8 7 6 6 6 7 8 8 9 9 9 10 10 10 11 12 12 12 12 12 12 13 15 17 19 22 26 28 27 26 27 30 33 35 35 36 37 35 33 31 30 31 32 32 31 30 29 30 28
6 8 6 5 6 10 8 2 4 11 14 15 16 16 17 18 16 11 7 2 2 2 1 3 2 0 1 3 4 3 3 3 5 7 8 8 8 9 9 8 7 7 7 8 9 10 10 10 11 11 11 11 12 12 12 12 13 14 14 15 16 19 21 22 22 23 24 25 27 28 31 33 34 35 35 36 36 34 32 33 34 33 34 34 32 31 29
9 9 8 10 12 9 2 2 2 7 10 11 14 17 18 19 17 15 12 7 3 1 3 3 2 4 5 6 6 6 5 5 7 8 8 9 9 9 9 9 9 8 8 9 9 10 11 11 11 12 12 13 13 13 13 14 16 18 19 19 19 20 23 25 24 24 25 26 26 28 30 31 32 34 34 35 36 34 31 32 33 34 35 35 35 34 33
9 8 9 11 9 3 2 2 3 3 4 8 11 13 14 13 12 13 13 6 2 5 6 5 5 5 6 7 8 8 8 8 8 8 8 9 9 9 10 10 11 10 9 9 10 10 10 10 11 12 13 13 13 14 15 16 19 21 22 23 23 22 24 26 26 25 25 26 27 27 29 29 31 33 35 36 36 33 30 30 31 33 35 34 34 36 36
8 9 10 10 10 9 8 6 2 1 3 5 6 8 7 4 4 6 4 3 6 5 5 5 4 4 5 6 8 9 8 8 8 8 8 8 9 10 12 13 14 14 11 9 8 8 9 11 11 11 12 13 14 16 17 18 20 22 23 23 23 23 25 25 25 26 25 26 28 28 28 29 31 33 35 36 37 35 33 32 32 33 34 34 34 35 36
7 9 10 9 11 11 7 3 3 5 5 5 5 6 6 1 2 1 4 6 3 4 5 6 4 3 4 6 7 6 3 6 6 6 6 9 11 11 13 15 15 13 9 7 8 9 10 11 11 11 13 15 15 16 17 18 20 20 21 21 21 23 24 24 24 25 25 26 28 29 30 31 32 33 34 34 36 36 34 33 34 33 32 34 37 36 35
7 9 10 9 10 7 2 1 2 5 4 5 5 8 8 1 5 5 5 3 4 5 6 7 4 4 5 7 7 4 1 2 5 6 7 10 12 13 14 13 9 7 7 8 10 11 11 13 14 14 15 15 15 16 17 19 19 18 19 21 21 22 24 24 23 24 26 28 29 30 32 33 34 35 35 35 35 36 34 32 33 32 29 31 38 39 38
9 10 9 8 8 5 1 2 3 2 3 2 3 9 7 3 6 3 1 3 6 5 7 7 5 6 7 6 7 8 6 6 7 8 9 11 13 14 12 8 7 8 9 10 11 13 14 15 15 15 14 15 16 17 18 19 18 18 20 21 22 23 25 25 26 27 28 30 32 33 34 35 35 36 36 35 34 34 32 31 33 33 31 32 37 41 41
11 11 10 7 8 7 5 7 5 2 3 2 7 8 2 3 4 2 3 6 7 6 7 7 5 7 8 9 10 11 10 9 8 10 12 13 14 12 8 7 8 9 9 9 12 14 14 14 15 15 16 18 18 18 18 18 18 20 21 23 24 25 26 28 30 31 31 32 33 35 36 36 37 37 36 35 34 34 34 33 35 36 36 36 37 39 42
9 10 10 9 8 5 4 3 2 5 4 5 6 2 3 5 7 6 6 7 7 6 8 8 7 9 10 11 12 12 11 10 9 11 13 12 10 8 7 6 8 9 10 12 13 13 12 13 14 16 17 19 19 18 18 18 19 21 23 25 26 27 28 30 32 33 34 35 35 35 36 37 37 38 38 37 37 37 36 36 38 38 39 39 37 36 39
7 8 8 8 7 2 5 4 1 4 7 6 3 1 3 6 6 5 6 7 7 7 8 9 10 11 12 12 12 11 11 10 10 10 8 7 6 7 8 8 8 9 11 13 13 13 12 12 14 15 17 20 18 16 18 20 21 24 25 26 27 28 30 32 34 35 35 35 34 34 35 36 36 38 39 39 39 38 37 37 37 38 39 38 36 34 35
6 8 7 6 6 3 5 6 4 5 6 5 4 4 5 5 5 6 6 6 7 8 8 9 10 11 11 12 11 11 11 10 8 6 5 5 6 8 8 8 8 9 11 12 15 16 13 12 14 16 18 20 19 19 22 24 24 25 27 27 28 29 30 32 34 35 35 35 35 34 34 35 35 37 39 39 38 37 36 36 35 35 35 34 31 32 33
8 9 8 7 8 6 5 7 7 8 9 9 7 6 6 7 6 6 6 8 9 8 8 10 10 10 11 12 12 11 10 7 5 4 4 5 7 8 8 8 8 10 12 14 18 20 17 14 16 18 18 20 23 25 26 25 23 25 28 30 30 30 32 33 33 34 35 36 35 35 34 33 33 35 35 35 34 32 31 32 32 32 32 31 29 29 30
11 11 11 11 13 13 11 10 10 10 11 10 7 6 7 7 6 6 7 9 9 8 8 8 8 9 10 11 11 9 7 6 4 4 5 5 6 7 7 8 10 14 17 17 18 20 20 16 16 18 19 19 21 24 25 26 26 27 30 31 31 32 33 34 33 34 35 34 33 32 32 30 30 31 32 32 31 30 29 29 30 30 30 30 29 28 28
11 10 11 13 15 16 15 13 11 12 12 10 9 8 8 8 8 9 8 8 7 7 7 7 9 10 9 9 8 6 5 5 5 4 5 5 6 7 7 9 13 16 16 16 16 18 20 18 16 18 18 18 20 23 26 28 29 29 31 30 30 32 32 32 31 31 30 30 31 31 30 28 28 29 30 29 30 30 28 28 28 29 29 29 28 27 27
12 11 13 15 17 17 16 13 11 11 11 12 12 11 10 10 11 8 5 4 5 5 6 7 8 8 7 7 6 5 4 5 4 4 5 6 7 8 8 10 13 14 13 15 16 18 20 20 18 18 19 20 23 26 28 29 30 32 32 29 28 31 32 30 29 28 28 29 30 30 29 29 28 29 29 29 30 29 29 29 29 29 29 29 29 28 28
11 12 15 17 17 17 16 15 13 12 12 13 14 13 11 11 10 5 3 3 3 4 5 5 5 6 6 5 4 4 4 4 4 4 6 6 8 9 9 10 12 13 13 15 17 18 20 21 20 21 22 25 28 29 30 30 30 32 32 28 28 30 29 27 27 27 27 29 29 29 30 30 30 31 30 30 32 33 32 32 32 33 34 33 32 31 30
9 11 13 14 12 11 12 12 12 12 12 13 13 11 10 10 9 5 5 4 4 3 3 3 3 5 5 3 3 3 3 3 4 5 7 8 8 9 10 11 12 13 13 15 18 20 21 20 21 23 25 28 30 30 30 30 29 30 31 29 27 27 26 26 27 27 28 28 29 29 31 31 31 32 31 31 32 35 35 35 35 37 39 39 38 37 35
11 12 13 12 10 10 11 12 13 12 9 9 9 10 10 8 5 3 5 5 5 5 4 2 2 3 3 2 2 3 3 4 5 6 7 8 9 11 12 13 13 13 14 16 19 20 21 21 22 25 27 30 31 31 31 29 29 29 29 27 26 26 26 27 28 28 28 29 29 29 30 30 30 31 32 31 31 32 35 37 37 38 40 42 42 41 41
14 14 15 12 10 12 14 15 13 8 3 4 7 8 7 3 3 3 5 5 4 4 4 4 2 1 1 2 2 3 4 5 6 7 8 9 10 12 13 13 13 15 17 17 18 21 23 24 26 28 30 32 32 32 31 30 29 29 29 27 27 29 29 29 30 29 29 29 29 29 29 29 29 29 30 30 28 29 31 33 35 37 38 40 41 41 42
15 14 15 14 13 14 14 12 7 2 5 5 6 5 2 3 4 3 3 2 1 1 3 3 2 2 1 1 2 3 5 6 6 8 9 10 10 11 12 13 14 15 16 17 20 23 25 27 28 30 32 33 32 31 31 30 30 31 32 30 29 30 31 30 29 29 28 28 29 28 28 28 28 28 27 27 26 26 28 30 32 34 35 37 39 39 40
16 15 15 14 13 13 12 10 7 4 5 5 4 3 3 4 5 4 3 2 2 2 2 2 2 3 2 1 2 4 6 7 8 8 9 10 10 10 11 12 13 15 17 20 22 25 27 29 30 30 31 33 33 32 31 32 32 33 34 32 30 29 31 31 30 29 29 28 28 28 27 27 28 27 27 27 26 26 27 26 26 28 30 32 34 35 36
15 15 14 12 12 13 12 9 5 1 5 5 4 5 6 6 5 4 3 3 3 3 3 2 2 2 2 2 3 5 6 7 8 9 9 10 11 11 12 13 15 17 19 22 25 28 30 30 28 28 31 34 33 32 32 32 33 33 33 31 28 27 28 29 29 28 28 27 27 27 27 27 27 27 28 28 27 26 26 24 23 24 27 29 30 32 33
14 14 13 11 11 9 5 1 3 5 6 5 5 7 7 6 5 3 3 3 3 3 2 3 3 1 1 2 3 4 6 7 8 9 9 10 11 12 13 15 16 18 21 25 27 27 27 27 26 28 32 34 33 31 31 32 31 30 29 27 25 24 25 26 26 26 27 27 27 27 27 27 27 28 28 28 27 27 27 26 25 26 27 28 30 32 34
14 11 8 5 3 2 4 5 4 5 5 6 6 6 5 5 4 3 4 4 4 2 2 2 2 0 2 3 4 4 6 7 8 10 11 11 12 13 15 17 19 21 23 24 24 23 24 25 27 29 32 33 32 31 31 30 29 28 27 25 24 23 24 25 25 26 27 27 27 28 28 27 27 27 28 27 27 27 26 25 26 26 27 27 28 29 31
8 2 2 2 3 4 4 4 4 5 6 6 5 5 4 4 4 4 4 5 4 2 2 2 1 2 3 4 5 5 7 9 10 12 12 13 14 15 17 19 19 18 17 18 20 23 25 26 28 30 32 32 32 31 31 29 28 26 25 25 25 25 25 26 27 27 28 28 28 28 28 27 26 26 26 26 26 26 25 25 25 25 25 26 25 24 26
2 5 4 3 3 3 4 4 4 5 5 5 5 5 5 4 4 4 4 4 3 3 3 2 3 5 5 6 6 7 9 10 12 13 13 15 16 18 19 18 16 14 15 19 23 25 26 27 29 30 31 32 33 33 31 29 26 23 22 23 25 26 27 28 28 27 27 27 27 27 27 26 25 25 25 25 24 24 24 23 23 23 23 23 23 24 25
6 5 3 2 3 2 4 4 4 5 5 6 5 6 5 4 4 4 3 3 2 3 3 4 5 6 6 7 8 8 9 11 12 13 15 17 18 19 19 18 17 17 20 23 24 25 26 27 28 29 30 32 34 34 30 26 24 21 21 22 24 26 27 27 26 26 26 26 26 26 25 25 24 24 23 23 23 23 23 22 21 22 22 22 22 25 26
5 3 4 3 3 3 5 6 5 5 5 5 4 3 3 3 3 3 3 2 2 4 4 5 6 7 7 7 8 8 9 10 11 13 15 16 17 19 19 17 17 19 21 23 24 26 25 24 26 28 31 32 33 32 28 24 23 22 22 23 24 25 26 26 25 25 26 25 25 25 25 25 24 23 23 23 22 22 22 21 20 21 22 21 23 27 28
3 3 2 1 2 1 3 5 6 5 5 5 4 3 3 3 3 3 3 3 4 5 6 6 7 7 7 7 8 8 8 7 7 9 12 15 18 19 19 18 19 21 23 24 25 23 21 22 25 28 30 31 31 29 26 24 23 23 22 23 23 24 24 25 25 24 24 25 26 26 26 25 24 22 22 22 22 21 20 20 20 20 21 21 24 26 27
4 4 5 5 4 4 3 2 4 4 4 4 4 3 3 3 3 3 3 4 5 6 6 7 8 8 7 8 8 8 8 8 9 11 14 17 19 19 18 19 20 22 23 24 22 18 19 23 25 26 27 29 29 26 24 24 24 23 22 22 23 23 23 23 24 24 24 25 25 25 25 25 25 24 23 21 19 18 19 20 20 20 20 21 22 24 25
5 5 5 4 4 5 5 4 4 4 3 3 3 3 4 4 5 5 5 5 6 7 7 8 9 9 8 8 8 9 10 11 12 13 15 17 17 17 18 20 21 21 22 21 18 17 21 25 25 24 26 29 28 24 23 24 23 22 22 22 22 21 21 22 22 23 24 24 24 25 25 26 26 25 24 21 17 16 17 18 19 19 19 20 21 21 21
5 5 5 4 5 5 5 4 5 5 4 3 4 4 5 6 6 6 6 6 7 8 8 9 9 9 9 9 10 12 13 13 14 15 17 18 19 19 19 19 19 17 14 14 16 21 24 24 23 24 26 27 26 24 24 23 22 22 22 20 19 19 19 20 21 22 23 24 24 24 25 25 24 23 22 21 19 18 17 18 18 18 18 18 17 17 16
6 6 6 5 5 6 5 4 5 5 5 4 5 6 7 7 7 7 7 8 9 9 9 10 11 11 11 11 11 13 15 17 17 18 20 20 19 18 17 16 14 13 11 13 19 24 24 22 22 24 26 25 24 24 25 24 24 23 21 19 18 18 18 18 20 21 22 23 23 23 23 23 22 22 22 21 20 19 18 18 19 19 18 18 17 16 16
6 5 5 5 5 4 4 4 4 5 5 5 6 7 7 6 7 7 8 10 11 10 10 10 11 11 11 11 11 14 17 19 19 19 20 20 19 18 18 18 16 13 12 16 21 23 21 19 21 23 23 23 22 24 25 25 24 23 21 19 18 18 17 17 19 20 21 21 22 22 22 22 21 21 21 21 20 20 19 19 18 18 18 18 18 17 16
4 4 4 4 3 2 2 2 3 4 5 6 7 7 7 6 6 7 8 10 11 10 10 10 10 10 10 11 13 15 18 20 19 19 19 20 18 17 16 16 13 10 11 17 21 20 18 18 20 21 22 21 21 23 25 25 23 22 21 19 18 17 17 17 17 18 19 20 21 21 22 22 22 21 21 21 20 20 20 19 19 18 18 19 19 18 17
4 4 4 3 2 2 1 2 3 3 4 6 7 8 8 8 7 8 9 11 12 12 12 12 12 12 13 15 16 18 20 21 21 20 19 17 14 10 8 9 9 10 14 19 19 17 16 17 18 18 20 21 21 22 23 23 22 21 21 19 17 17 18 17 17 17 18 19 20 20 20 21 21 21 21 21 20 20 20 20 19 18 18 18 19 19 18
4 4 4 3 2 2 2 2 3 4 5 6 6 7 8 8 8 10 12 13 13 14 14 15 15 16 17 17 18 19 20 21 21 20 18 16 13 10 8 10 12 14 17 18 17 15 16 17 17 17 18 20 21 20 20 20 20 21 21 20 19 18 17 17 17 17 17 17 18 18 19 19 20 20 20 20 20 20 21 20 20 19 19 19 19 19 17
4 3 3 2 2 2 2 3 3 4 6 7 7 7 8 9 10 11 12 13 14 14 15 16 17 17 17 17 16 16 17 18 18 16 14 14 14 12 11 12 14 16 17 16 16 15 15 16 17 17 17 19 19 18 18 19 19 20 21 21 21 20 18 17 17 18 18 18 18 18 19 19 19 19 20 20 20 20 20 20 19 19 19 18 18 19 19
4 4 3 3 2 2 2 3 3 4 5 7 8 9 11 12 13 13 13 14 15 15 15 16 17 17 17 16 14 12 11 11 10 9 8 9 10 8 7 9 13 15 15 14 14 13 14 15 16 17 17 17 16 16 18 19 19 19 20 20 21 21 20 19 19 19 19 18 18 18 19 18 18 18 19 19 19 19 20 19 18 18 18 18 18 20 21
4 4 3 3 3 2 2 2 3 3 6 8 11 14 14 14 15 15 14 14 15 16 16 17 17 16 15 14 13 12 12 12 10 8 6 6 5 4 5 9 14 16 14 13 12 12 13 14 15 15 15 15 15 15 17 18 19 19 20 20 20 21 20 21 22 22 21 20 20 20 19 18 18 18 19 18 18 19 20 20 18 18 18 19 20 21 24
3 3 3 3 3 3 3 3 4 6 7 9 10 13 14 13 13 13 13 14 15 16 17 17 17 16 15 15 14 13 13 12 12 11 10 9 8 9 11 14 15 14 12 11 11 11 12 13 14 14 14 13 13 15 17 18 19 19 19 19 20 20 20 20 21 22 22 22 23 22 21 19 19 19 20 20 20 20 22 23 21 20 20 21 22 23 25
3 3 3 3 3 3 3 4 5 6 6 4 5 9 12 13 12 13 14 15 15 16 16 16 16 15 14 13 13 11 9 8 8 9 9 9 9 11 13 13 13 12 11 10 9 10 11 12 12 12 12 12 13 15 16 17 18 18 19 19 19 19 19 20 20 21 22 23 23 23 23 23 21 20 20 21 21 22 23 24 24 22 22 23 25 25 25
4 3 2 2 2 3 3 4 4 4 5 5 7 9 12 13 14 15 14 13 13 13 13 13 13 13 12 11 11 11 9 7 6 4 4 5 8 11 13 13 11 10 9 9 8 9 10 11 11 11 11 12 13 14 15 16 17 17 18 18 18 18 19 20 20 21 22 23 23 23 24 24 24 22 22 22 22 21 21 22 23 23 23 24 24 24 25
3 2 1 1 1 2 2 3 3 3 4 6 8 10 11 12 12 12 11 10 9 9 9 9 9 9 8 8 8 8 8 8 8 7 8 10 12 13 13 11 9 8 8 9 9 10 9 9 10 11 11 12 12 13 14 15 15 16 16 17 17 17 18 19 19 20 20 21 21 22 22 22 22 23 22 22 22 22 22 22 22 22 22 22 23 23 23
2 1 0 0 1 2 2 3 3 4 5 6 7 9 10 9 8 8 8 8 7 7 7 7 6 5 4 4 4 4 5 7 9 10 12 13 12 11 10 8 8 8 9 9 10 11 10 10 10 11 11 11 12 13 13 13 14 14 15 15 16 16 17 17 18 18 19 19 20 21 21 21 21 21 21 21 21 21 21 20 20 20 20 21 21 21 21
2 1 0 1 2 3 4 4 5 5 6 7 8 9 9 8 7 8 8 8 7 7 6 6 5 3 2 1 2 3 4 6 7 8 9 9 9 8 7 7 7 8 9 9 10 11 11 11 11 11 11 11 12 12 12 12 13 13 13 14 14 15 16 16 17 17 18 18 18 18 19 19 19 19 19 19 19 18 18 18 18 18 18 18 18 18 17
1 1 1 2 3 4 4 3 3 4 5 5 6 7 8 7 7 7 7 6 6 6 5 5 5 4 2 2 3 4 5 6 6 6 6 7 7 6 6 7 8 9 9 10 10 10 11 11 11 11 11 11 12 12 12 12 12 12 12 13 13 13 14 14 15 15 16 16 16 16 16 17 17 17 17 17 17 16 16 16 15 15 15 15 14 14 14
Wind_Direction
268 272 274 275 277 278 278 278 273 271 269 262 255 255 261 266 266 266 274 276 275 277 279 281 286 286 283 273 223 190 190 187 182 190 200 204 210 211 213 221 224 229 238 247 259 272 282 291 300 310 315 321 327 329 331 334 334 335 336 338 339 339 337 335 333 331 330 325 320 323 327 329 331 332 333 334 333 329 329 329 329 329 329 328 327 325 323
273 274 276 277 278 277 275 272 270 268 266 263 263 266 270 270 268 272 278 276 274 277 280 282 287 298 13 67 159 166 176 180 185 199 209 212 214 213 217 225 227 232 242 249 256 262 270 278 285 292 295 299 304 307 311 314 318 323 328 330 331 330 329 329 326 326 326 322 316 317 321 324 325 326 327 328 325 320 321 322 322 322 321 319 320 320 318
275 274 277 278 278 277 277 277 274 269 266 265 268 272 274 274 273 275 275 274 274 276 282 297 332 58 92 152 173 185 194 191 197 213 221 224 224 222 226 228 229 237 247 256 263 266 271 277 282 287 290 291 289 289 291 294 298 306 315 320 320 320 321 321 321 322 323 320 317 318 319 320 320 321 323 323 320 315 314 314 315 316 314 312 313 313 311
268 269 274 283 302 303 283 269 261 259 260 265 268 270 273 275 278 280 278 277 281 290 352 37 56 85 318 234 210 219 218 207 214 231 241 244 239 238 241 238 236 246 256 265 272 277 281 284 285 284 286 285 281 281 283 285 285 287 296 302 303 306 309 311 313 315 315 314 313 313 315 316 316 316 318 318 316 313 310 308 309 310 309 307 307 308 306
265 256 262 300 344 308 272 251 245 251 257 263 265 266 270 271 274 280 281 280 283 50 47 334 272 179 211 272 268 266 259 250 253 258 262 262 257 253 251 248 248 254 262 272 280 286 290 291 289 286 285 282 280 282 285 286 285 283 285 288 291 294 297 299 303 306 306 305 304 304 307 309 309 310 311 311 310 308 306 305 305 304 303 302 302 304 303
265 261 268 291 277 264 261 218 215 252 262 264 266 269 270 271 273 277 275 234 172 189 285 287 270 236 304 307 314 306 286 270 268 270 271 270 270 265 259 255 254 257 265 277 286 293 296 300 300 297 293 289 289 293 294 294 293 289 286 285 287 292 294 293 293 296 298 298 297 297 299 302 303 303 304 305 305 305 303 302 301 300 299 299 299 299 297
269 274 276 267 254 249 267 95 184 256 268 266 267 268 268 271 273 273 274 265 207 129 47 27 349 337 325 316 310 296 276 260 259 266 270 271 274 275 269 262 257 258 266 276 287 294 299 305 307 304 301 300 301 302 302 301 300 295 291 289 286 287 292 294 293 293 294 293 291 290 292 295 297 298 299 300 300 301 300 298 295 294 295 296 295 295 293
264 265 250 252 258 271 282 223 194 234 254 249 259 264 264 266 268 272 281 287 104 77 43 10 336 323 314 303 292 277 265 254 250 255 265 275 281 283 280 272 264 261 264 272 283 294 302 306 307 305 306 307 305 302 301 302 300 298 296 294 289 287 292 295 295 294 292 291 289 285 284 288 292 293 295 296 296 297 297 292 287 288 290 290 289 290 290
253 256 250 258 277 279 262 244 213 221 255 259 276 283 280 282 287 281 269 129 100 57 8 336 311 299 299 291 282 276 261 243 243 252 264 280 288 288 287 281 272 265 266 277 293 303 306 306 306 308 309 309 306 301 300 302 302 301 299 294 291 292 295 296 297 295 292 292 292 285 280 283 287 288 291 292 292 294 295 290 284 283 285 286 287 287 287
248 260 262 261 268 271 264 276 7 28 11 360 348 299 284 352 48 29 122 114 68 2 331 309 284 266 279 279 286 298 248 215 244 268 277 287 292 292 292 289 281 276 284 309 318 314 309 307 312 316 313 310 307 304 304 306 305 303 300 298 296 297 298 297 296 295 293 292 293 288 283 284 287 288 288 287 287 290 290 286 282 280 281 285 286 285 285
247 254 260 255 262 272 235 218 16 55 50 21 360 292 279 161 106 95 91 59 340 320 297 290 267 245 265 271 285 318 337 238 285 303 300 300 299 297 299 302 307 321 336 333 321 315 315 316 320 324 320 316 314 313 313 313 310 308 306 304 304 303 301 298 296 295 294 295 294 290 285 286 288 289 288 285 284 285 283 279 277 277 278 280 282 283 283
242 246 252 250 260 277 307 299 322 78 103 38 310 282 279 147 131 108 44 297 290 280 277 280 257 246 262 275 289 304 307 304 307 305 304 306 304 304 314 336 357 348 335 325 319 319 322 324 328 332 330 324 320 318 317 315 312 311 309 308 307 304 301 298 295 294 295 295 294 292 289 287 288 289 288 284 282 282 279 275 274 274 275 277 279 280 280
242 244 251 255 260 264 266 278 277 156 129 243 260 269 288 147 192 239 247 257 272 275 274 278 267 263 275 285 291 295 296 296 297 300 304 307 308 320 353 20 354 331 322 320 319 319 325 331 333 334 330 324 320 318 316 313 311 311 311 309 306 303 299 297 295 295 296 296 295 293 291 289 288 287 284 281 280 280 279 276 274 272 273 276 277 276 277
243 246 254 262 267 251 217 239 222 162 185 256 262 241 136 184 230 250 240 247 262 266 267 274 276 279 283 285 287 288 289 290 293 299 307 312 320 344 9 2 340 329 322 319 318 321 332 337 331 328 325 321 318 316 313 310 311 313 311 308 306 304 301 299 298 298 299 298 296 294 293 291 289 286 283 281 280 280 278 276 274 271 272 275 274 272 274
245 253 250 251 269 264 140 139 171 198 221 255 282 190 193 211 235 255 249 245 243 245 259 272 277 282 284 282 283 282 281 284 291 302 318 334 340 341 334 330 337 337 326 320 318 322 332 332 328 327 325 320 316 313 309 309 312 312 309 308 306 304 303 302 301 302 302 300 299 297 295 293 290 287 286 285 282 280 279 277 275 272 272 272 270 269 270
248 257 247 241 275 293 154 176 241 251 244 266 289 282 275 275 277 277 272 266 257 253 264 272 274 279 282 282 283 280 278 284 296 314 343 343 324 322 324 331 341 340 330 321 315 316 324 328 326 326 324 320 315 310 309 311 312 310 309 309 306 303 302 302 301 302 303 301 301 299 297 296 292 288 287 286 282 280 277 275 272 270 269 268 266 266 268
258 266 273 277 290 288 199 200 245 262 264 273 275 269 273 276 276 276 277 277 274 269 271 274 273 274 279 283 283 281 283 296 310 321 322 316 314 322 331 337 339 335 328 321 316 315 320 326 325 322 322 319 312 308 310 312 311 309 310 310 307 303 303 302 300 301 302 300 300 299 298 296 292 288 287 286 283 279 276 273 270 268 268 267 264 264 265
265 267 271 272 275 271 256 244 248 253 259 267 266 258 260 262 265 268 270 275 278 276 274 273 268 267 274 280 281 283 292 303 309 306 306 314 325 332 338 342 336 330 325 321 316 313 315 322 324 318 316 313 306 304 309 311 310 309 310 309 305 302 302 301 300 301 301 299 298 299 297 294 289 287 287 287 284 281 279 275 272 270 270 269 268 267 268
260 260 260 259 260 264 264 260 258 257 259 261 260 261 265 270 273 272 272 276 280 276 272 265 262 267 273 275 276 283 292 294 301 310 314 323 334 339 343 338 329 327 324 318 314 311 311 316 319 312 308 306 303 304 308 309 309 310 308 305 301 299 300 300 299 298 297 295 295 296 294 291 288 287 287 286 284 283 282 279 277 275 273 272 271 271 271
250 256 261 262 262 264 266 265 265 267 265 265 269 272 273 280 281 273 261 265 268 263 258 254 257 264 265 264 271 281 288 294 306 315 319 329 334 333 334 330 324 323 318 310 307 307 306 309 311 306 304 307 308 309 310 310 311 310 306 301 297 297 299 297 295 295 293 293 293 293 291 289 288 287 286 285 282 280 280 279 279 278 276 274 274 275 276
255 257 260 262 264 266 266 262 259 260 264 270 274 273 273 281 282 256 194 199 238 249 253 250 250 255 258 262 275 282 286 295 304 313 323 330 327 322 324 324 318 314 308 303 303 301 300 303 306 305 306 310 312 313 313 311 310 308 304 300 297 297 297 295 294 295 294 292 291 290 290 289 286 283 283 282 281 280 278 275 274 275 275 274 273 274 275
252 246 245 249 256 265 268 266 262 264 271 278 277 270 269 275 271 239 196 190 201 220 239 239 235 248 258 272 288 286 286 297 311 321 325 322 318 317 318 313 308 303 301 302 301 297 295 299 303 305 308 312 313 314 313 312 309 305 302 300 298 297 297 296 295 295 293 291 290 289 289 289 287 285 283 280 280 281 281 279 277 276 276 275 275 274 273
245 242 243 247 254 263 269 275 277 277 277 272 263 262 270 275 263 216 206 208 207 204 198 185 202 244 266 305 325 307 297 305 316 319 319 317 316 314 311 307 304 303 304 302 298 294 296 302 306 308 309 310 312 313 314 313 309 304 301 300 299 299 298 296 294 293 291 290 290 288 287 286 287 288 288 285 281 280 282 283 283 281 279 279 279 278 276
250 251 254 256 258 262 269 278 283 281 251 228 244 256 262 241 158 172 209 221 224 211 180 148 129 170 270 323 331 311 299 306 316 315 312 312 308 304 303 302 302 304 304 300 297 299 303 307 309 310 309 308 310 313 313 312 308 304 302 300 298 297 296 293 292 292 290 289 289 287 286 286 286 287 290 290 287 284 283 284 286 285 284 284 283 281 280
249 253 257 258 258 263 272 278 275 213 157 191 232 247 226 151 144 167 191 182 159 176 173 162 138 116 99 335 313 307 301 303 310 310 307 304 299 294 294 296 297 298 299 297 298 302 305 307 308 309 307 307 310 313 312 312 310 306 303 299 295 294 293 291 291 290 288 287 287 286 285 285 286 287 288 289 290 291 291 289 288 287 286 285 285 284 284
246 251 256 259 260 264 268 268 258 216 164 172 184 150 105 102 112 126 136 124 111 123 148 177 150 100 72 19 310 307 302 299 304 305 300 294 291 288 289 292 293 295 297 299 299 301 304 305 306 304 303 306 311 312 312 312 311 306 300 296 291 290 290 290 289 289 287 285 285 284 284 285 286 286 286 286 288 291 294 294 292 289 288 286 285 285 285
245 246 248 251 254 256 257 258 260 126 108 119 130 122 111 106 107 105 97 97 106 110 112 118 112 80 28 344 310 302 297 295 298 297 288 285 288 290 290 292 293 296 299 299 299 301 303 303 302 301 302 307 312 314 314 312 308 302 297 294 291 288 289 289 288 287 286 285 284 284 285 285 285 285 285 285 286 287 288 290 290 290 290 289 287 287 288
247 243 239 241 246 247 238 176 96 95 100 105 111 114 113 112 110 111 133 147 138 124 121 122 110 80 337 315 311 303 294 291 290 287 282 286 291 292 291 293 297 301 302 299 298 300 301 301 300 302 305 310 316 317 315 311 306 301 297 295 293 292 291 290 288 287 287 286 284 284 284 284 284 284 284 284 284 284 283 284 285 287 289 290 290 291 292
249 242 234 235 237 140 117 116 123 130 123 114 112 115 123 132 139 160 183 174 149 138 166 169 134 90 303 299 300 294 288 286 284 283 286 290 290 289 292 298 302 303 300 295 295 298 300 302 303 304 307 314 320 319 315 311 307 303 301 298 296 294 292 291 290 289 288 287 284 283 284 284 284 284 284 283 283 283 283 283 284 286 288 291 293 295 294
244 218 134 100 94 116 150 179 178 160 149 141 136 136 142 155 169 183 182 164 154 171 198 196 224 277 280 277 273 275 279 281 283 285 288 288 287 292 299 303 304 301 296 292 296 301 303 305 305 305 310 318 322 319 316 313 308 304 302 300 297 294 292 292 293 292 290 290 288 287 287 287 286 284 284 283 282 282 282 282 283 285 287 290 293 294 293
130 81 85 103 120 158 197 205 180 159 151 149 155 160 161 169 185 190 179 166 172 190 194 209 250 261 259 261 268 274 275 276 279 283 285 286 291 299 304 302 295 289 290 293 298 302 305 305 306 308 315 321 321 318 316 314 309 305 303 301 298 296 295 296 297 296 293 292 291 289 288 286 285 283 282 281 282 281 280 280 282 283 285 288 289 288 288
104 81 77 116 129 169 207 200 180 169 158 156 169 178 173 167 175 184 183 179 192 210 221 236 245 245 249 263 272 272 270 271 276 281 285 290 296 302 302 296 287 284 288 293 298 303 304 304 306 312 319 322 320 318 317 314 310 307 304 301 299 298 298 300 300 298 297 295 293 290 287 285 283 283 282 280 280 279 279 280 281 281 283 284 284 285 286
160 226 249 211 181 210 224 212 192 177 165 162 167 162 143 139 156 176 189 202 221 235 242 246 246 250 259 266 267 266 272 279 282 284 287 292 297 299 298 295 290 290 292 295 300 305 307 305 307 315 323 324 320 318 317 316 312 308 304 302 300 299 300 302 302 301 300 298 295 293 290 287 284 282 280 280 279 277 277 277 277 279 281 280 280 283 285
183 227 242 154 135 208 227 203 183 171 160 154 144 129 132 149 160 171 196 222 240 248 252 254 258 262 262 261 263 268 276 283 285 285 287 291 294 297 299 298 296 295 297 301 307 311 311 309 313 321 327 325 319 316 318 319 316 311 307 306 304 303 303 304 306 305 304 302 299 298 296 293 289 283 279 278 278 278 278 277 277 278 279 279 280 283 285
90 91 78 73 70 56 52 101 135 142 142 144 141 139 150 164 170 188 218 234 245 252 255 260 265 266 262 261 266 270 268 269 274 279 283 287 292 297 301 302 301 301 303 308 313 317 316 318 325 333 332 323 316 316 320 324 322 318 312 309 307 305 305 307 308 308 306 305 304 304 303 301 299 296 291 285 279 275 276 277 276 277 277 277 279 283 284
91 100 94 84 83 80 75 78 90 100 114 133 148 160 176 188 195 206 225 241 253 261 264 265 266 263 258 259 264 266 266 269 273 276 281 287 293 297 300 301 300 300 302 307 315 323 323 327 337 342 332 320 315 318 325 329 328 323 317 312 308 306 308 311 311 310 310 311 311 311 309 308 307 307 307 304 298 291 288 286 284 284 283 283 286 291 295
83 99 108 109 104 102 102 108 117 126 140 161 178 188 195 201 208 219 234 248 255 260 262 261 258 258 260 264 268 269 270 271 273 276 282 287 292 295 296 297 297 295 293 298 312 323 327 334 344 343 331 320 317 321 330 336 336 328 321 315 310 309 312 315 315 315 316 316 315 316 316 316 315 315 318 320 320 319 318 316 314 312 311 312 315 319 325
90 92 101 110 115 117 121 128 142 157 169 185 206 218 220 224 231 238 243 248 253 257 259 258 258 262 266 270 271 272 273 275 277 280 283 288 291 291 290 287 287 287 287 297 312 321 328 338 345 340 329 321 320 326 336 345 346 338 326 316 310 312 316 319 320 320 319 319 319 319 320 321 322 322 323 325 327 329 331 332 332 331 331 333 337 341 344
108 101 103 109 117 125 131 144 171 191 197 205 221 234 239 244 251 254 254 258 262 263 260 259 262 266 267 268 270 272 275 278 280 281 284 288 289 287 286 286 285 285 292 306 316 322 329 340 344 337 327 321 324 333 342 349 350 343 331 319 314 316 319 321 322 323 322 322 323 323 323 324 326 326 327 328 330 332 334 337 339 340 341 341 343 345 348
121 122 123 120 124 133 149 176 205 223 229 233 243 253 259 262 263 259 258 263 269 269 264 261 262 264 263 263 266 270 275 280 282 283 286 289 288 285 285 289 291 296 308 317 322 326 335 345 346 336 326 324 330 339 347 353 352 347 339 329 321 321 322 323 324 325 325 326 328 328 328 328 328 328 331 333 334 335 337 340 343 346 347 348 349 349 350
129 132 133 132 138 152 179 221 246 257 258 256 259 268 273 273 268 261 260 266 273 275 271 263 258 258 261 264 267 271 276 281 285 286 285 283 281 279 281 284 289 303 316 321 326 334 345 351 347 334 325 328 337 346 353 356 356 353 349 341 332 327 325 325 326 327 328 329 329 328 328 329 329 331 334 337 338 340 342 342 344 349 351 352 352 352 351
131 131 133 142 158 179 211 244 263 273 273 271 273 278 279 275 267 262 265 269 272 273 273 271 267 266 268 269 270 273 277 281 285 286 281 272 264 259 264 278 292 307 318 323 331 342 351 352 345 333 327 332 342 351 359 3 3 1 359 355 350 341 333 328 328 329 330 331 333 332 332 333 333 335 338 339 340 344 345 345 346 350 354 356 357 357 355
133 133 141 158 177 198 226 243 260 278 287 292 294 291 288 285 277 271 271 274 273 273 274 276 274 272 270 269 268 270 275 279 281 281 278 275 271 266 262 274 294 310 319 324 332 344 352 348 340 332 333 340 348 356 5 10 10 7 5 4 2 357 348 339 336 334 334 336 339 340 339 340 339 340 341 343 344 346 348 349 350 352 355 358 1 3 3
149 157 167 182 193 205 230 248 259 274 287 297 302 300 297 295 292 286 281 279 278 275 272 270 269 270 270 268 264 263 268 274 278 277 279 289 294 284 267 278 300 314 320 324 333 345 349 343 335 334 341 350 357 4 11 15 13 10 8 7 7 5 1 357 353 349 343 339 339 340 341 342 342 343 343 344 345 348 350 352 354 356 358 2 7 13 20
167 177 182 196 208 217 239 257 266 276 288 296 300 301 299 298 297 294 288 279 274 273 271 268 267 267 266 263 259 259 264 269 273 274 273 279 286 276 275 293 307 315 320 326 336 345 346 340 336 339 347 355 2 10 17 18 16 12 9 8 8 7 6 5 4 3 0 355 352 352 350 347 349 352 353 351 351 354 358 1 1 2 5 9 16 26 36
173 185 194 213 233 249 264 274 281 290 297 302 302 302 303 303 301 297 291 282 274 272 274 273 270 268 267 265 264 267 270 269 266 261 257 258 263 270 282 297 308 315 321 330 342 346 342 338 340 346 352 358 6 14 18 19 18 15 12 10 9 8 7 5 6 8 9 9 8 7 4 0 359 3 7 8 9 13 18 20 19 16 19 26 34 41 48
177 196 215 239 261 280 297 300 297 295 295 293 287 293 302 308 305 299 297 292 284 281 281 278 275 274 274 270 264 263 267 274 276 269 259 255 264 279 292 303 312 318 324 334 343 343 338 337 344 351 354 360 9 16 18 18 18 16 13 11 9 7 6 7 8 10 12 14 15 15 16 15 14 14 16 19 21 23 26 29 31 32 35 40 45 49 52
189 207 229 264 286 299 306 302 285 269 265 265 268 281 296 305 305 302 300 297 291 287 285 281 279 278 276 268 260 255 254 261 273 276 258 254 275 293 303 308 313 319 327 335 339 338 336 338 344 351 356 2 10 16 17 16 16 15 13 12 11 10 10 11 12 13 15 17 17 18 20 22 23 24 27 29 31 32 34 35 38 41 44 46 48 50 53
189 203 220 285 293 294 293 279 258 252 267 277 279 285 294 300 301 299 299 297 294 291 289 286 283 278 268 257 252 249 245 244 249 259 270 280 289 298 303 308 315 325 332 333 330 329 332 337 344 350 356 2 8 12 13 13 13 13 11 11 12 13 14 15 16 17 18 19 20 22 23 24 25 28 32 34 36 39 42 43 43 45 48 49 51 52 53
149 142 133 191 242 249 251 247 250 266 284 289 289 291 297 300 301 302 306 307 304 300 300 300 297 287 266 251 251 251 251 256 264 272 279 285 290 295 302 312 324 331 329 324 322 325 330 337 343 348 353 357 2 5 7 7 8 10 10 9 10 12 13 15 18 19 20 20 22 24 24 25 28 31 34 36 37 41 44 45 47 49 50 50 50 51 51
144 157 193 265 278 275 267 261 261 273 286 293 297 299 300 300 301 304 309 312 310 309 312 316 315 308 296 283 278 275 279 287 290 288 287 287 290 297 308 319 324 322 319 318 320 325 328 333 337 342 346 349 353 357 358 359 1 3 4 4 6 7 8 10 12 14 16 18 21 22 23 24 27 28 31 33 35 37 39 42 43 45 46 47 48 48 49
172 197 246 286 295 292 278 264 262 280 296 304 307 305 302 301 303 305 308 312 314 314 317 320 320 318 318 326 323 318 312 309 306 300 293 290 294 306 319 321 318 315 316 318 320 322 324 327 330 334 338 341 344 347 349 350 352 354 355 356 359 0 2 3 5 6 7 10 14 16 19 21 22 24 25 26 27 28 31 33 35 37 39 41 43 43 45